Tracking 23726 objects as of 25-Sep-2021
HD Live streaming from Space Station
objects crossing your sky now

YAOGAN-33

Track YAOGAN-33 now!
10-day predictions


NORAD ID: 47302
Int'l Code: 2020-103A
Perigee: 701.9 km
Apogee: 704.0 km
Inclination: 98.2 °
Period: 98.7 minutes
Semi major axis: 7073 km
RCS: Unknown
Launch date: December 27, 2020
Source: People's Republic of China (PRC)
Launch site: Jiuquan Satellite Launch Center, China (JSC)
aabbcc
Your satellite tracking list
Your tracking list is empty




NASA's NSSDC Master Catalog

Two Line Element Set (TLE):
1 47302U 20103A   21268.45474886  .00000069  00000-0  24422-4 0  9990
2 47302  98.2372 156.8865 0001520  92.5708 267.5659 14.59176905 39646
Source of the keplerian elements: AFSPC